Погода Актобе

Погода Актобе : погода сейчас, прогноз погоды и архив. Всё, что Вы хотите узнать о погоде Актобе!

Хотите узнать прогноз погоды Актобе? Тогда Вам сюда: Погода Актобе

Поиск расширенной информации на нашем сайте:

Другие новости

Новости СМИ2

Главная страница сайта

Новости сайта

03.07.2017

Напоминаем, что на нашем специализированном сайте Метеоцентр.Азия вы можете получить высокодетализированные автоматические прогнозы погоды по пунктам России, СНГ и мира в авиационном формате (включающие направление и скорость ветра, видимость, явления погоды, количество и форму облачности, нижнюю и верхнюю границу облачности).

Рекомендуем: Самая актуальная информация мелекино тут.

Погода Актобе - сегодня

Время (UTC), дата Ветер
(°,м/с) 
Видим.   Явления Облачность Т
(°С)
Тd
(°С)
f(%) Тe
(°С)
Pmin
(гПа)
dP
(гПа)
Po
(мм)
O2
(г/м3)
Тmin Tmax R s Состояние
почвы
12 09.12.17 340 (С) 10 км  слаб. снег{ливн. осадки}  10/10 600 м 
[Sc]
-5.3 -7.1 87 -10  1013.5  2.4  739  305           
15 09.12.17 330 (СЗ) 11{15}  н/о  позёмок{снег}  10/10 1000 м 
[Sc]
-6.5 -9.3 80 -13  1015.1  1.5  740  307    -5  0.4     
18 09.12.17 340 (С) 10{16}  н/о  слаб. снег  10/10 600 м 
[Sc]
-7.7 -9.9 84 -14  1016.9  1.6  742  308    -5  0.7     
21 09.12.17 320 (СЗ) 11{17}  н/о  слаб. снег  10/10 600 м 
[Sc]
-8.1 -10.8 81 -15  1018.8  1.8  743  310           
00 10.12.17 330 (СЗ) 10{15}  н/о  слаб. снег  10/0 средняя 
[As op]
-9 -11 85 -16  1020.7  1.8  744  311           
03 10.12.17 350 (С) 10{17}  н/о  слаб. снег  10/0 средняя 
[As op]
-9.5 -11.6 85 -17  1022.9  746  312      0.3  14  равномерный
сухой снег
100% 
06 10.12.17 330 (СЗ) 20000 м  позёмок{снег}  4/0 средняя 
[As op]
-10.4 -13.7 77 -15  1025.1  747  314  -9.6    0.3     
09 10.12.17 330 (СЗ) 10 км  слаб. снег  10/8 600 м средняя 
[Sc|As trans]
-9.1 -12 79 -14  1026  1.1  748  313           
12 10.12.17 340 (С) 10 км  слаб. снег  9/5 600 м средняя 
[Sc|As trans]
-10.5 -12.8 83 -12  1026.9  0.7  749  315           
15 10.12.17 340 (С) н/о  слаб. снег  8/8 600 м 
[Sc]
-9.9 -12.5 81 -14  1028.3  1.4  750  315    -9  0.2     
18 10.12.17 340 (С) н/о  слаб. снег  8/8 600 м 
[Sc]
-10.6 -12.5 86 -12  1029.3  750  316    -9  0.2     
21 10.12.17 310 (СЗ) н/о  слаб. снег  8/8 600 м 
[Sc]
-10.8 -12.7 86 -13  1030.2  0.8  751  316           
00 11.12.17 330 (СЗ) н/о  слаб. снег  8/8 600 м 
[Sc]
-11.4 -13.1 87 -13  1030.8  0.5  751  317           
03 11.12.17 340 (С) н/о  слаб. снег  9/9 600 м 
[Sc]
-11.5 -13.2 87 -13  1031.5  0.6  752  317      0.3  14  равномерный
сухой снег
100% 
06 11.12.17 350 (С) 10 км  слаб. снег  10/10 600 м 
[Sc]
-12 -13.2 91 -12  1032.6  1.1  753  318  -11.6    0.3     
09 11.12.17 290 (З) 20000 м  {снег}  ясно 
-9.4 -12.9 76 -9  1032  -0.3  752  315           
12 11.12.17 320 (СЗ) 20000 м  {снег}  1/1 1000 м 
[Sc]
-10.6 -12.5 86 -10  1033.2  753  317           
15 11.12.17 290 (З) н/о    10/10 1000 м 
[Sc]
-10.8 -11.7 93 -11  1033.6  0.4  754  317    -9  0.0     
18 11.12.17 290 (З) н/о  дымка  10/10 300 м 
[St]
-13 -14.2 91 -13  1034.3  0.5  754  320    -9  0.0     
21 11.12.17 110 (В) н/о  дымка  10/10 600 м 
[St]
-15.8 -17.1 90 -16  1035.2  0.5  754  324           
00 12.12.17 тихо ()   н/о  дымка  6/6 600 м 
[St]
-18.8 -20.3 88 -19  1035.8  0.2  754  328           
03 12.12.17 130 (ЮВ) н/о    8/8 600 м 
[Sc]
-21.4 -23.2 85 -22  1037.4  1.2  755  332        14  равномерный
сухой снег
100% 
06 12.12.17 130 (ЮВ) 20000 м    1/0 средняя 
[Ac trans]
-20.5 -22.4 85 -23  1037.8  0.6  756  331  -21.5         
09 12.12.17 тихо ()   10 км    1/0 средняя 
[Ac trans]
-14.6 -16.6 85 -15  1036.4  0.7  755  323           
12 12.12.17 110 (В) 20000 м    3/0 средняя 
[Ac trans]
-12.2 -14.2 85 -14  1036.8  0.7  755  320           
Время (UTC), дата Ветер
(°,м/с) 
Видим.   Явления Облачность Т
(°С)
Тd
(°С)
f(%) Тe
(°С)
Pmin
(гПа)
dP
(гПа)
Po
(мм)
O2
(г/м3)
Тmin Tmax R s Состояние
почвы

Для получения пояснительной информации подведите курсор к названию столбца.

ПОГОДА Актобе - архив

Всё, что Вы хотите узнать о погоде Актобе - удобно и подробно!

Выберите нужную дату (начиная с 1 января 2015* года) и нажмите кнопку "Найти".
Будут отображены архивные сводки погоды по пункту Актобе, начиная с указанной даты.


Отображать данные в формате CSV (для использования в таблицах Excel)


Внимание! Наш архив погоды предназначен исключительно для личного некоммерческого использования в познавательных целях. Если Вам необходимы официальные справки о состоянии погоды (для производственных, юридических, коммерческих и т.п. целей), обращайтесь в органы Росгидромета.

*Примечание: данная дата относится к архиву по метеостанциям СССР (Россия, СНГ, Балтия).
Архив по метеостанциям Зарубежной Европы и Азии (кроме Китая) хранится 10 дней, по другим регионам земного шара (Китай, Африка, Америка, Австралия, Океания) - 1 день.

Актобе - район местоположения метеостанции


Название, широта, долгота, высота метеостанции:
Актобе (город) 50.3°ш. 57.2°д. 219 м над ур. моря [Казахстан]

Дополнительная информация

В oтличие oт бoльшинства пoгoдных сайтoв мы публикуем пoдрoбную метеoинфoрмацию в детальнoм прoфессиoнальнoм фoрмате.

Характеристики температуры и влажнoсти вoздуха измеряются на высoте 2 м в тени вдали oт зданий и деревьев.
Скoрoсть ветра измеряется на высoте 10 м (на урoвне рoста челoвека скoрoсть ветра ниже в 1.5-2 раза). Если метеoстанция нахoдится в гoрoде или в лесу, тo скoрoсть ветра занижена на 2-4 м/с пo сравнению с oткрытым местoм. Скoрoсть ветра над акватoриями крупных рек и oзёр, а также на вершинах хoлмoв на 2-5 м/с выше, чем в oбычных услoвиях.
Атмoсфернoе давление в разных тoчках местнoсти мoжет значительнo oтличаться oт давления на метеoстанции, в зависимoсти oт услoвий рельефа (при пoдъёме на 10 м давление пoнижается примернo на 1 мм рт.ст.).